This is the latest recevied weather packets stored in our database for station/object K0APR. If no packets are shown the sender has not sent any weather packets the latest 10 day(s).
| Time | Temp. | Humidity | Pressure | Rain* | Wind** | Luminosity | Snow |
|---|---|---|---|---|---|---|---|
| 1788271920 | 21.11° C | 76% | 1015.5 hPa | 0 mm | - | 139 W/m² | - |
| 1788271619 | 20.56° C | 77% | 1015.5 hPa | 0 mm | - | 128 W/m² | - |
| 1788271318 | 20.56° C | 79% | 1015.5 hPa | 0 mm | - | 120 W/m² | - |
| 1788271014 | 20.56° C | 80% | 1015.5 hPa | 0 mm | - | 113 W/m² | - |
| 1788270708 | 20.56° C | 79% | 1015.5 hPa | 0 mm | - | 108 W/m² | - |
| 1788270405 | 20.56° C | 80% | 1015.8 hPa | 0 mm | - | 104 W/m² | - |
| 1788270105 | 20° C | 80% | 1015.8 hPa | 0 mm | - | 100 W/m² | - |
| 1788269824 | 20° C | 80% | 1016.1 hPa | 0 mm | - | 94 W/m² | - |
| 1788269503 | 20° C | 82% | 1016.1 hPa | 0 mm | - | 87 W/m² | - |
| 1788269197 | 20° C | 81% | 1016.1 hPa | 0 mm | - | 74 W/m² | - |
| 1788268898 | 19.44° C | 81% | 1016.1 hPa | 0 mm | - | 72 W/m² | - |
| 1788268597 | 18.89° C | 81% | 1015.8 hPa | 0 mm | - | 72 W/m² | - |
| 1788268292 | 18.89° C | 81% | 1015.5 hPa | 0 mm | - | 79 W/m² | - |
| 1788267987 | 18.89° C | 82% | 1015.8 hPa | 0 mm | - | 84 W/m² | - |
| 1788267686 | 18.89° C | 84% | 1015.8 hPa | 0 mm | - | 83 W/m² | - |
| 1788267384 | 18.33° C | 84% | 1015.5 hPa | 0 mm | - | 59 W/m² | - |
| 1788267074 | 17.78° C | 86% | 1015.5 hPa | 0 mm | - | 68 W/m² | - |
| 1788266774 | 17.22° C | 90% | 1015.8 hPa | 0 mm | - | 65 W/m² | - |
| 1788266468 | 16.67° C | 91% | 1015.8 hPa | 0 mm | - | 58 W/m² | - |
| 1788266163 | 16.11° C | 93% | 1015.5 hPa | 0 mm | - | 46 W/m² | - |
| 1788265862 | 16.11° C | 94% | 1015.5 hPa | 0 mm | - | 34 W/m² | - |
| 1788265561 | 16.11° C | 94% | 1015.5 hPa | 0 mm | - | 20 W/m² | - |
| 1788265261 | 16.11° C | 94% | 1015.5 hPa | 0 mm | - | 13 W/m² | - |
| 1788264956 | 16.11° C | 94% | 1015.5 hPa | 0 mm | - | 10 W/m² | - |
| 1788264651 | 16.11° C | 94% | 1015.1 hPa | 0 mm | - | 8 W/m² | - |
* Rain latest hour (hover to see other rain measurements)
** Current wind speed in m/s (hover to see current wind gust speed)